Regional Weather Roundup
Issued by NWS Bismarck, ND

Home | Current Version | Previous Version | Text Only | Print | Product List | Glossary On
Versions: 1 2 3 4 5 6 7 8 9 10 11 12 13 14 15 16 17 18 19 20 21 22 23 24 25 26 27 28 29 30 31 32 33 34 35 36 37 38 39 40 41 42 43 44 45 46 47 48 49 50
000
ASUS43 KBIS 210410
RWRBIS

NWR BROADCAST TEXT
NATIONAL WEATHER SERVICE BISMARCK ND
1000 PM CST SAT DEC 20 2014

NOTE: "FAIR" INDICATES FEW OR NO CLOUDS BELOW 12,000 FEET WITH NO
SIGNIFICANT WEATHER AND/OR OBSTRUCTIONS TO VISIBILITY.


CITY           SKY/WX    TMP DP  RH WIND       PRES   REMARKS
WILLISTON      CLEAR     26  21  81 CALM      29.73F
MINOT          MOCLDY    33  31  92 SW7       29.71F
MINOT AFB      PTCLDY    31  31 100 SW3       29.71F
BISMARCK       PTCLDY    18  16  92 NE5       29.80F WCI  11
DICKINSON      PTCLDY    29  22  75 W7        29.75S
GARRISON         N/A     28  24  85 SW5       29.74F
HETTINGER ARPT MOCLDY    26  21  81 CALM      29.79F
JAMESTOWN      CLOUDY    27  24  89 S13       29.81F FOG     WCI  16
BEACH          FAIR      27  25  93 SW10      29.76F WCI  17
CARRINGTON     FAIR      23  23 100 MISG      29.80F
CROSBY         FAIR      27  27 100 S8        29.70F WCI  18
HARVEY         MOCLDY    23  23 100 CALM      29.77S
HAZEN          FAIR      27  25  93 SW5       29.77F
LINTON         FAIR      25  25 100 SE8       29.81F WCI  16
MANDAN         FAIR      30  27  86 SW9       29.78F
OAKES            N/A     28  28 100 S18       29.88F FOG     WCI  16
RUGBY          CLOUDY    23  23 100 SE5       29.75F WCI  17
STANLEY        FAIR      28  28 100 W10       29.71S WCI  19
TIOGA          FAIR      25  25 100 W7        29.74F WCI  17
WATFORD CITY   FAIR      27  25  93 CALM      29.72F
$$

CITY           SKY/WX    TMP DP  RH WIND       PRES   REMARKS
GRAND FORKS    CLOUDY    31  29  92 S16       29.87F FOG     WCI  20
GRAND FORKS AF CLOUDY    30  30 100 S14       29.86F WCI  20
DEVILS LAKE    CLOUDY    27  21  80 S8        29.77F WCI  18
FARGO          CLOUDY    33  29  85 S21G29    29.90S FOG
CANDO          FOG       27  27 100 S8        29.77F VSB 1/2 WCI  18
CAVALIER       CLOUDY    28  28 100 S12       29.83F FOG     WCI  18
GWINNER        CLOUDY    32  32 100 MISG      29.90F
LANGDON        CLOUDY    27  27 100 N5        29.78F FOG
ROLLA          FOG       23  23 100 MISG      29.75F VSB 1/4
WALHALLA         N/A     28  28 100 S9        29.82F FOG     WCI  20
$$

CITY           SKY/WX    TMP DP  RH WIND       PRES   REMARKS
ABERDEEN       CLOUDY    31  28  89 S16       29.91R WCI  20
MOBRIDGE       CLOUDY    27  24  89 SE10      29.81F WCI  17
BUFFALO          N/A     35  24  64 W5        29.71F
RAPID CITY     CLOUDY    35  26  69 CALM      29.81F
GLASGOW        CLEAR     26  20  77 E12       29.68F WCI  16
SIDNEY         CLEAR     28  23  80 S7        29.76F
WOLF POINT     CLEAR     22  19  89 CALM      29.73F
GLENDIVE       CLEAR     21  18  86 S3        29.75F
MILES CITY     CLEAR     31  22  69 SE10      29.74F
BAKER          CLEAR     25  22  88 E3        29.76F
$$

CITY           SKY/WX    TMP DP  RH WIND       PRES   REMARKS
BILLINGS       MOCLDY    34  22  61 SW15      29.73F
GREAT FALLS    PTCLDY    36  26  67 S10       29.60F
REGINA         FOG       18  18 100 S5        29.66F VSB 1/8 WCI  11
ESTEVAN        PTCLDY    23  23 100 SW8       29.69S WCI  14
$$



USA.gov is the U.S. government's official web portal to all federal, state and local government web resources and services.